STARLINK-1433, 45711

Orbit data source: Space-Track

STARLINK-1433, 45711 is a payload satellite owned by SpaceX/Seattle (US) in LEO that was launched on Thu, 04 Jun 2020 UTC via an FALCON 9 launch vehicle from the Air Force Eastern Test Range (AFETR). Payload-class satellites include a variety of spacecraft equipped with specific instruments for various scientific and technological missions. These include communications satellites like Starlink; space stations such as the ISS; scientific satellites like the Hubble; Earth observation satellites from companies like Planet Labs, Umbra, and HawkEye 360; GPS; miniature CubeSats for education and research; and military/defense satellites.

Loading next visibility...
Identifier
45711, 2020-035BG
Orbit
LEO
Country
Flag of USUS
Related business
Manufacturer
SpaceX/Seattle
Mission
Operational Commercial Communications
Bus & Motor
STARLINK, Unknown motor
Mass
260 kg wet, ~248 kg dry
Launch date (UTC)
2020-06-04 (5 years ago)
Launch vehicle
FALCON 9
Launch site
Air Force Eastern Test Range (AFETR)
Object type
Payload
Rocket body
Debris
Shape & HBR
Box + 1 Pan, 10.1 m
Radar Cross Section
13.562 m², Large (>1 m²)

Expand to show TLE details & history
Last TLE update: 17 hours ago

TLE from 17 hours ago
0 STARLINK-1433
1 45711U 20035BG  25287.32063621  .00000222  00000-0  33807-4 0  9996
2 45711  53.0549 333.6965 0001545  89.8746 270.2420 15.06383821297088
Epoch: 2025-10-14T07:41Z
TLE epoch observation values (Epoch: 2025-10-14T07:41:42.968Z)
Latitude
-0.00003°
Longitude
-164.8433°
Altitude
548.136 km
Speed
7.589 km/s
True Right ascension
22h 14m 47s
True Declination
0° 00' 00"
Sunlit
Object was in full shadow at epoch
Visualization orbit readout
Latitude
Unknown
Longitude
Unknown
Altitude
Unknown
Speed
Unknown
Apparent Right ascension
Unknown
Apparent Declination
Unknown
Sunlit
N/A
Visualization observer readout
Local Sidereal Time
19:01:13
Azimuth
Unknown
Elevation
Unknown
Doppler factor
Unknown
Orbital elements
Apogee altitude
548.602 km
Perigee altitude
546.462 km
Semi-major axis
6,925.669 km
Eccentricity
0.00015
Inclination
53.0549°
RAAN
333.6965°
Arg. of periapsis
89.8746°
True anomaly
270.2243°
Mean anomaly
270.242°
Eccentric anomaly
270.23315°
Mean motion
3.76574 °/min
Orbital period
95.6 mins
BSTAR
0.000033807
Loading maneuver chart data...
Computing Atmospheric mass density...
Loading historical data...
Loading historical data...
Loading historical data...
Loading historical data...
Loading historical data...
Loading historical data...
Loading historical data...

Documentation

Showing up to 5 results
|